Location: Baggettsville
(36.4767°N, 86.7303°W)
Time: 11:20:48
(UTC+00:00)

ISS - Visible Passes

Search period start: 29 November 2022 00:00
Search period end: 09 December 2022 00:00
Orbit: 411 x 420 km, 51.6° (Epoch: 29 November)

Date Brightness Start Highest point End Pass type
(mag) Time Alt. Az. Time Alt. Az. Time Alt. Az.
02 Dec -1.7 23:51:48 10° NNW 23:53:15 16° N 23:53:15 16° N visible
03 Dec -1.6 23:03:37 10° N 23:05:01 12° NNE 23:06:24 10° NE visible
04 Dec -1.2 00:38:57 10° NW 00:39:44 16° NW 00:39:44 16° NW visible
04 Dec -3.2 23:50:16 10° NW 23:53:23 36° NE 23:53:30 36° NE visible
05 Dec -2.4 23:01:41 10° NNW 23:04:24 23° NNE 23:07:07 10° E visible
06 Dec -1.9 00:38:06 10° WNW 00:40:28 31° WSW 00:40:28 31° WSW visible
06 Dec -3.6 23:49:02 10° NW 23:52:21 72° SW 23:54:53 16° SE visible
07 Dec -3.7 23:00:09 10° NW 23:03:26 58° NE 23:06:42 10° ESE visible
08 Dec -0.5 00:38:35 10° WSW 00:39:44 11° SW 00:40:54 10° SSW visible
08 Dec -1.1 23:48:23 10° WNW 23:50:59 21° SW 23:53:35 10° S visible
